QLK17D YSSY-YBHI

Flight info

Callsign QLK17D
Flight time 1h 39m
Altitude 20000
Route GROOK1 KADOM A576 PKS W428 BHI
Aircraft DH8D/L-VGDW/C

Departure

Time 2026-04-23 00:06
Airport Sydney Kingsford Smith International Airport (YSSY)

Arrival

Time 2026-04-23 01:45
Airport Broken Hill Airport (YBHI)
Time Latitude Longitude Altitude Speed Heading
2026-04-22 23:13 -33.93471 151.17912 29 ft 0 kts 101°
2026-04-22 23:55 -33.93468 151.17891 29 ft 4 kts 101°
2026-04-22 23:55 -33.93463 151.17859 29 ft 4 kts 101°
2026-04-22 23:56 -33.93459 151.17834 29 ft 0 kts 101°
2026-04-22 23:59 -33.93484 151.17843 29 ft 0 kts 182°
2026-04-23 00:01 -33.93499 151.17842 29 ft 1 kts 184°
2026-04-23 00:01 -33.93534 151.17835 29 ft 6 kts 189°
2026-04-23 00:01 -33.93574 151.17827 29 ft 5 kts 189°
2026-04-23 00:01 -33.93621 151.17804 29 ft 12 kts 222°
2026-04-23 00:02 -33.93635 151.17699 29 ft 13 kts 277°
2026-04-23 00:02 -33.93556 151.17611 29 ft 16 kts 346°
2026-04-23 00:02 -33.93490 151.17591 29 ft 11 kts 346°
2026-04-23 00:02 -33.93406 151.17595 29 ft 8 kts
2026-04-23 00:03 -33.93391 151.17594 29 ft 0 kts 351°
2026-04-23 00:03 -33.93368 151.17589 29 ft 10 kts 349°
2026-04-23 00:03 -33.93254 151.17559 29 ft 23 kts 347°
2026-04-23 00:03 -33.93081 151.17537 29 ft 23 kts
2026-04-23 00:04 -33.92986 151.17458 29 ft 16 kts 286°
2026-04-23 00:04 -33.92970 151.17374 29 ft 3 kts 283°
2026-04-23 00:04 -33.92970 151.17372 29 ft 1 kts 283°
2026-04-23 00:04 -33.92962 151.17332 29 ft 1 kts 281°
2026-04-23 00:05 -33.92963 151.17333 29 ft 0 kts 281°
2026-04-23 00:05 -33.92956 151.17295 29 ft 8 kts 282°
2026-04-23 00:05 -33.92986 151.17200 29 ft 13 kts 216°
2026-04-23 00:05 -33.93046 151.17190 29 ft 0 kts 166°
2026-04-23 00:06 -33.93066 151.17195 29 ft 20 kts 166°
2026-04-23 00:06 -33.93451 151.17295 29 ft 91 kts 166°
2026-04-23 00:06 -33.94256 151.17508 121 ft 133 kts 165°
2026-04-23 00:06 -33.95154 151.17792 740 ft 136 kts 171°
2026-04-23 00:07 -33.96105 151.17489 1192 ft 153 kts 207°
2026-04-23 00:07 -33.96938 151.16604 1665 ft 169 kts 221°
2026-04-23 00:07 -33.97779 151.15529 2078 ft 186 kts 222°
2026-04-23 00:07 -33.98699 151.14354 2469 ft 201 kts 222°
2026-04-23 00:08 -33.99701 151.13087 2790 ft 218 kts 223°
2026-04-23 00:08 -34.00554 151.11515 3018 ft 239 kts 247°
2026-04-23 00:08 -34.00735 151.09518 3429 ft 248 kts 274°
2026-04-23 00:08 -34.00262 151.07544 4031 ft 247 kts 289°
2026-04-23 00:09 -33.99577 151.05647 4629 ft 248 kts 292°
2026-04-23 00:09 -33.98878 151.03753 5172 ft 250 kts 292°
2026-04-23 00:09 -33.98166 151.01828 5700 ft 253 kts 292°
2026-04-23 00:09 -33.97452 150.99897 6221 ft 256 kts 292°
2026-04-23 00:10 -33.96750 150.98002 6714 ft 259 kts 292°
2026-04-23 00:10 -33.96012 150.96015 7225 ft 262 kts 292°
2026-04-23 00:10 -33.95271 150.94025 7704 ft 265 kts 292°
2026-04-23 00:10 -33.94518 150.92006 8189 ft 267 kts 293°
2026-04-23 00:11 -33.93759 150.89974 8637 ft 270 kts 292°
2026-04-23 00:11 -33.92987 150.87911 9064 ft 273 kts 293°
2026-04-23 00:11 -33.92224 150.85874 9471 ft 275 kts 293°
2026-04-23 00:11 -33.91431 150.83754 9891 ft 276 kts 293°
2026-04-23 00:12 -33.90650 150.81661 10253 ft 279 kts 292°
2026-04-23 00:12 -33.89845 150.79517 10664 ft 280 kts 293°
2026-04-23 00:12 -33.89043 150.77373 11082 ft 282 kts 293°
2026-04-23 00:12 -33.88236 150.75219 11505 ft 284 kts 294°
2026-04-23 00:13 -33.87429 150.73065 11925 ft 286 kts 293°
2026-04-23 00:13 -33.86611 150.70874 12366 ft 287 kts 294°
2026-04-23 00:13 -33.85790 150.68690 12809 ft 289 kts 293°
2026-04-23 00:13 -33.84951 150.66475 13265 ft 291 kts 294°
2026-04-23 00:14 -33.84109 150.64251 13720 ft 293 kts 294°
2026-04-23 00:14 -33.83261 150.62020 14188 ft 294 kts 294°
2026-04-23 00:14 -33.82411 150.59785 14675 ft 295 kts 294°
2026-04-23 00:14 -33.81559 150.57552 15120 ft 298 kts 292°
2026-04-23 00:15 -33.80662 150.55296 15619 ft 299 kts 292°
2026-04-23 00:15 -33.79758 150.53012 16094 ft 302 kts 292°
2026-04-23 00:15 -33.78877 150.50731 16568 ft 303 kts 291°
2026-04-23 00:15 -33.77997 150.48413 17029 ft 306 kts 291°
2026-04-23 00:16 -33.77129 150.46112 17490 ft 308 kts 291°
2026-04-23 00:16 -33.76245 150.43761 17958 ft 310 kts 290°
2026-04-23 00:16 -33.75351 150.41386 18427 ft 313 kts 290°
2026-04-23 00:16 -33.74463 150.39021 18932 ft 313 kts 290°
2026-04-23 00:17 -33.73574 150.36643 19415 ft 314 kts 290°
2026-04-23 00:17 -33.72689 150.34270 19844 ft 313 kts 291°
2026-04-23 00:17 -33.71801 150.31891 20038 ft 314 kts 290°
2026-04-23 00:17 -33.70928 150.29482 20166 ft 315 kts 288°
2026-04-23 00:18 -33.70186 150.27030 20300 ft 317 kts 285°
2026-04-23 00:18 -33.69498 150.24496 20370 ft 320 kts 284°
2026-04-23 00:18 -33.68828 150.21936 20408 ft 325 kts 283°
2026-04-23 00:18 -33.68152 150.19336 20422 ft 330 kts 284°
2026-04-23 00:19 -33.67462 150.16712 20428 ft 334 kts 284°
2026-04-23 00:19 -33.66749 150.14050 20430 ft 338 kts 284°
2026-04-23 00:19 -33.66019 150.11370 20430 ft 342 kts 285°
2026-04-23 00:19 -33.65275 150.08657 20430 ft 345 kts 285°
2026-04-23 00:20 -33.64527 150.05942 20431 ft 348 kts 285°
2026-04-23 00:20 -33.63773 150.03193 20431 ft 350 kts 285°
2026-04-23 00:20 -33.63022 150.00459 20431 ft 352 kts 285°
2026-04-23 00:20 -33.62251 149.97647 20431 ft 354 kts 285°
2026-04-23 00:21 -33.61503 149.94887 20431 ft 355 kts 285°
2026-04-23 00:21 -33.60735 149.92070 20431 ft 356 kts 285°
2026-04-23 00:21 -33.59961 149.89259 20431 ft 357 kts 285°
2026-04-23 00:21 -33.59183 149.86443 20429 ft 358 kts 285°
2026-04-23 00:22 -33.58406 149.83638 20429 ft 359 kts 285°
2026-04-23 00:22 -33.57625 149.80812 20428 ft 359 kts 285°
2026-04-23 00:22 -33.56850 149.78003 20427 ft 360 kts 285°
2026-04-23 00:22 -33.56068 149.75168 20428 ft 360 kts 285°
2026-04-23 00:23 -33.55286 149.72333 20428 ft 360 kts 285°
2026-04-23 00:23 -33.54498 149.69482 20428 ft 361 kts 285°
2026-04-23 00:23 -33.53711 149.66636 20428 ft 361 kts 285°
2026-04-23 00:23 -33.53193 149.64768 20428 ft 361 kts 285°
2026-04-23 00:24 -33.52149 149.61009 20428 ft 361 kts 285°
2026-04-23 00:24 -33.51358 149.58148 20428 ft 362 kts 286°
2026-04-23 00:24 -33.50572 149.55309 20427 ft 362 kts 286°
2026-04-23 00:24 -33.49783 149.52472 20427 ft 362 kts 286°
2026-04-23 00:25 -33.48992 149.49637 20427 ft 362 kts 286°
2026-04-23 00:25 -33.48470 149.47770 20427 ft 362 kts 286°
2026-04-23 00:25 -33.47671 149.44913 20427 ft 362 kts 286°
2026-04-23 00:25 -33.46873 149.42063 20427 ft 362 kts 286°
2026-04-23 00:26 -33.46073 149.39204 20427 ft 362 kts 286°
2026-04-23 00:26 -33.45281 149.36369 20426 ft 362 kts 286°
2026-04-23 00:26 -33.44489 149.33528 20426 ft 362 kts 286°
2026-04-23 00:26 -33.43693 149.30675 20426 ft 362 kts 286°
2026-04-23 00:27 -33.42896 149.27835 20426 ft 362 kts 286°
2026-04-23 00:27 -33.42094 149.24988 20425 ft 362 kts 286°
2026-04-23 00:27 -33.41295 149.22152 20425 ft 362 kts 286°
2026-04-23 00:27 -33.40493 149.19307 20425 ft 362 kts 286°
2026-04-23 00:28 -33.39701 149.16488 20425 ft 362 kts 286°
2026-04-23 00:28 -33.38914 149.13696 20421 ft 362 kts 286°
2026-04-23 00:28 -33.38110 149.10848 20416 ft 362 kts 287°
2026-04-23 00:28 -33.37299 149.07983 20413 ft 362 kts 287°
2026-04-23 00:29 -33.36490 149.05130 20412 ft 362 kts 287°
2026-04-23 00:29 -33.35680 149.02273 20411 ft 362 kts 287°
2026-04-23 00:29 -33.34888 148.99477 20411 ft 361 kts 287°
2026-04-23 00:29 -33.34113 148.96745 20411 ft 361 kts 287°
2026-04-23 00:30 -33.33340 148.94010 20410 ft 361 kts 287°
2026-04-23 00:30 -33.32552 148.91231 20409 ft 361 kts 287°
2026-04-23 00:30 -33.31759 148.88440 20408 ft 361 kts 287°
2026-04-23 00:30 -33.30960 148.85627 20407 ft 361 kts 287°
2026-04-23 00:31 -33.30152 148.82798 20407 ft 361 kts 287°
2026-04-23 00:31 -33.29347 148.79988 20407 ft 361 kts 287°
2026-04-23 00:31 -33.28548 148.77200 20406 ft 360 kts 287°
2026-04-23 00:31 -33.27749 148.74412 20406 ft 360 kts 287°
2026-04-23 00:32 -33.26951 148.71630 20408 ft 360 kts 287°
2026-04-23 00:32 -33.26159 148.68864 20411 ft 360 kts 287°
2026-04-23 00:32 -33.25365 148.66090 20413 ft 360 kts 287°
2026-04-23 00:32 -33.24571 148.63310 20413 ft 360 kts 287°
2026-04-23 00:33 -33.23777 148.60542 20413 ft 360 kts 287°
2026-04-23 00:33 -33.22981 148.57773 20413 ft 360 kts 287°
2026-04-23 00:33 -33.22186 148.55016 20413 ft 360 kts 287°
2026-04-23 00:33 -33.21382 148.52226 20414 ft 360 kts 287°
2026-04-23 00:34 -33.20584 148.49461 20414 ft 360 kts 287°
2026-04-23 00:34 -33.19782 148.46683 20415 ft 360 kts 287°
2026-04-23 00:34 -33.18989 148.43930 20414 ft 359 kts 287°
2026-04-23 00:34 -33.18181 148.41133 20414 ft 359 kts 287°
2026-04-23 00:35 -33.17377 148.38355 20414 ft 359 kts 287°
2026-04-23 00:35 -33.16566 148.35560 20414 ft 359 kts 287°
2026-04-23 00:35 -33.15755 148.32766 20414 ft 359 kts 287°
2026-04-23 00:35 -33.14966 148.30051 20413 ft 359 kts 287°
2026-04-23 00:36 -33.14175 148.27329 20413 ft 359 kts 287°
2026-04-23 00:36 -33.13375 148.24559 20414 ft 359 kts 286°
2026-04-23 00:36 -33.12734 148.21692 20413 ft 358 kts 279°
2026-04-23 00:36 -33.12325 148.18897 20412 ft 358 kts 277°
2026-04-23 00:37 -33.11967 148.16104 20412 ft 358 kts 276°
2026-04-23 00:37 -33.11608 148.13239 20412 ft 357 kts 276°
2026-04-23 00:37 -33.11236 148.10359 20414 ft 357 kts 277°
2026-04-23 00:37 -33.10851 148.07504 20413 ft 357 kts 277°
2026-04-23 00:38 -33.10449 148.04615 20413 ft 358 kts 277°
2026-04-23 00:38 -33.10040 148.01734 20413 ft 358 kts 278°
2026-04-23 00:38 -33.09630 147.98858 20413 ft 358 kts 278°
2026-04-23 00:38 -33.09221 147.95957 20413 ft 357 kts 278°
2026-04-23 00:39 -33.08816 147.93066 20413 ft 357 kts 278°
2026-04-23 00:39 -33.08409 147.90188 20413 ft 357 kts 278°
2026-04-23 00:39 -33.07996 147.87276 20413 ft 357 kts 278°
2026-04-23 00:39 -33.07584 147.84393 20413 ft 357 kts 278°
2026-04-23 00:40 -33.07168 147.81483 20412 ft 357 kts 278°
2026-04-23 00:40 -33.06759 147.78614 20413 ft 357 kts 278°
2026-04-23 00:40 -33.06349 147.75740 20413 ft 357 kts 278°
2026-04-23 00:40 -33.05939 147.72865 20413 ft 357 kts 278°
2026-04-23 00:41 -33.05534 147.70026 20413 ft 357 kts 278°
2026-04-23 00:41 -33.05124 147.67153 20413 ft 357 kts 278°
2026-04-23 00:41 -33.04713 147.64283 20413 ft 356 kts 278°
2026-04-23 00:41 -33.04301 147.61413 20414 ft 356 kts 278°
2026-04-23 00:42 -33.03888 147.58540 20414 ft 356 kts 278°
2026-04-23 00:42 -33.03472 147.55666 20414 ft 356 kts 278°
2026-04-23 00:42 -33.03055 147.52793 20415 ft 356 kts 278°
2026-04-23 00:42 -33.02640 147.49911 20414 ft 356 kts 278°
2026-04-23 00:43 -33.02226 147.47056 20414 ft 356 kts 278°
2026-04-23 00:43 -33.01808 147.44193 20414 ft 356 kts 278°
2026-04-23 00:43 -33.01395 147.41349 20415 ft 357 kts 278°
2026-04-23 00:43 -33.00980 147.38490 20415 ft 357 kts 278°
2026-04-23 00:44 -33.00567 147.35655 20415 ft 357 kts 278°
2026-04-23 00:44 -33.00150 147.32791 20414 ft 357 kts 278°
2026-04-23 00:44 -32.99733 147.29940 20415 ft 357 kts 278°
2026-04-23 00:44 -32.99324 147.27149 20415 ft 357 kts 278°
2026-04-23 00:45 -32.98903 147.24277 20416 ft 357 kts 278°
2026-04-23 00:45 -32.98478 147.21404 20416 ft 357 kts 278°
2026-04-23 00:45 -32.98053 147.18521 20415 ft 357 kts 278°
2026-04-23 00:45 -32.97633 147.15667 20416 ft 357 kts 278°
2026-04-23 00:46 -32.97210 147.12803 20415 ft 357 kts 278°
2026-04-23 00:46 -32.96788 147.09951 20416 ft 357 kts 278°
2026-04-23 00:46 -32.96375 147.07148 20416 ft 357 kts 278°
2026-04-23 00:46 -32.95953 147.04305 20416 ft 357 kts 278°
2026-04-23 00:47 -32.95533 147.01483 20415 ft 357 kts 278°
2026-04-23 00:47 -32.95111 146.98652 20415 ft 357 kts 278°
2026-04-23 00:47 -32.94689 146.95826 20416 ft 357 kts 278°
2026-04-23 00:47 -32.94267 146.93009 20416 ft 357 kts 278°
2026-04-23 00:48 -32.93844 146.90185 20416 ft 357 kts 278°
2026-04-23 00:48 -32.93419 146.87351 20417 ft 357 kts 278°
2026-04-23 00:48 -32.92996 146.84530 20417 ft 357 kts 278°
2026-04-23 00:48 -32.92576 146.81740 20417 ft 357 kts 278°
2026-04-23 00:49 -32.92144 146.78857 20417 ft 357 kts 278°
2026-04-23 00:49 -32.91719 146.76048 20417 ft 357 kts 278°
2026-04-23 00:49 -32.91291 146.73240 20417 ft 357 kts 278°
2026-04-23 00:49 -32.90873 146.70495 20417 ft 357 kts 278°
2026-04-23 00:50 -32.90459 146.67766 20418 ft 357 kts 278°
2026-04-23 00:50 -32.90036 146.64963 20418 ft 357 kts 278°
2026-04-23 00:50 -32.89607 146.62123 20418 ft 357 kts 278°
2026-04-23 00:50 -32.89178 146.59299 20418 ft 357 kts 278°
2026-04-23 00:51 -32.88756 146.56530 20418 ft 356 kts 278°
2026-04-23 00:51 -32.88321 146.53684 20418 ft 356 kts 278°
2026-04-23 00:51 -32.87887 146.50847 20418 ft 356 kts 278°
2026-04-23 00:51 -32.87458 146.48048 20418 ft 356 kts 278°
2026-04-23 00:52 -32.87021 146.45212 20418 ft 356 kts 278°
2026-04-23 00:52 -32.86592 146.42421 20418 ft 356 kts 278°
2026-04-23 00:52 -32.86162 146.39627 20417 ft 356 kts 278°
2026-04-23 00:52 -32.85726 146.36808 20418 ft 356 kts 278°
2026-04-23 00:53 -32.85289 146.33994 20418 ft 356 kts 278°
2026-04-23 00:53 -32.84852 146.31165 20418 ft 356 kts 278°
2026-04-23 00:53 -32.84417 146.28347 20419 ft 356 kts 278°
2026-04-23 00:53 -32.83980 146.25519 20419 ft 356 kts 278°
2026-04-23 00:54 -32.83540 146.22683 20419 ft 356 kts 278°
2026-04-23 00:54 -32.83103 146.19875 20418 ft 356 kts 278°
2026-04-23 00:54 -32.82662 146.17055 20419 ft 356 kts 278°
2026-04-23 00:54 -32.82225 146.14253 20419 ft 356 kts 278°
2026-04-23 00:55 -32.81786 146.11435 20419 ft 356 kts 278°
2026-04-23 00:55 -32.81343 146.08602 20419 ft 356 kts 278°
2026-04-23 00:55 -32.80901 146.05793 20419 ft 356 kts 278°
2026-04-23 00:55 -32.80455 146.02963 20419 ft 356 kts 278°
2026-04-23 00:56 -32.80010 146.00138 20420 ft 356 kts 278°
2026-04-23 00:56 -32.79565 145.97316 20419 ft 356 kts 278°
2026-04-23 00:56 -32.79123 145.94534 20419 ft 356 kts 278°
2026-04-23 00:56 -32.78678 145.91725 20419 ft 356 kts 278°
2026-04-23 00:57 -32.78234 145.88914 20419 ft 356 kts 278°
2026-04-23 00:57 -32.77787 145.86119 20420 ft 356 kts 278°
2026-04-23 00:57 -32.77330 145.83309 20419 ft 356 kts 278°
2026-04-23 00:57 -32.76868 145.80488 20418 ft 357 kts 279°
2026-04-23 00:58 -32.76413 145.77688 20419 ft 357 kts 278°
2026-04-23 00:58 -32.75956 145.74862 20419 ft 357 kts 278°
2026-04-23 00:58 -32.75503 145.72051 20420 ft 356 kts 278°
2026-04-23 00:58 -32.75053 145.69261 20419 ft 357 kts 278°
2026-04-23 00:59 -32.74603 145.66472 20420 ft 357 kts 278°
2026-04-23 00:59 -32.74151 145.63672 20419 ft 357 kts 278°
2026-04-23 00:59 -32.73698 145.60873 20419 ft 357 kts 278°
2026-04-23 00:59 -32.73247 145.58089 20419 ft 357 kts 278°
2026-04-23 01:00 -32.72792 145.55295 20419 ft 357 kts 278°
2026-04-23 01:00 -32.72333 145.52477 20419 ft 357 kts 278°
2026-04-23 01:00 -32.71875 145.49670 20419 ft 357 kts 278°
2026-04-23 01:00 -32.71413 145.46853 20419 ft 357 kts 278°
2026-04-23 01:01 -32.70951 145.44046 20418 ft 357 kts 278°
2026-04-23 01:01 -32.70490 145.41236 20419 ft 357 kts 278°
2026-04-23 01:01 -32.70033 145.38442 20419 ft 357 kts 278°
2026-04-23 01:01 -32.69575 145.35643 20418 ft 357 kts 278°
2026-04-23 01:02 -32.69117 145.32845 20419 ft 357 kts 278°
2026-04-23 01:02 -32.68663 145.30082 20419 ft 357 kts 278°
2026-04-23 01:02 -32.68204 145.27298 20419 ft 357 kts 278°
2026-04-23 01:02 -32.67743 145.24506 20419 ft 357 kts 278°
2026-04-23 01:03 -32.67281 145.21719 20419 ft 357 kts 278°
2026-04-23 01:03 -32.66819 145.18939 20419 ft 357 kts 278°
2026-04-23 01:03 -32.66359 145.16161 20419 ft 357 kts 278°
2026-04-23 01:03 -32.65894 145.13353 20418 ft 357 kts 278°
2026-04-23 01:04 -32.65432 145.10565 20418 ft 357 kts 278°
2026-04-23 01:04 -32.64966 145.07789 20418 ft 357 kts 278°
2026-04-23 01:04 -32.64032 145.02232 20417 ft 357 kts 278°
2026-04-23 01:05 -32.63568 144.99442 20418 ft 357 kts 278°
2026-04-23 01:05 -32.63104 144.96651 20419 ft 357 kts 278°
2026-04-23 01:05 -32.62643 144.93888 20418 ft 357 kts 278°
2026-04-23 01:05 -32.62176 144.91107 20418 ft 358 kts 278°
2026-04-23 01:06 -32.61704 144.88323 20418 ft 358 kts 278°
2026-04-23 01:06 -32.61232 144.85540 20418 ft 358 kts 278°
2026-04-23 01:06 -32.60772 144.82808 20418 ft 358 kts 278°
2026-04-23 01:06 -32.60303 144.80026 20417 ft 358 kts 278°
2026-04-23 01:07 -32.59833 144.77245 20407 ft 358 kts 279°
2026-04-23 01:07 -32.59364 144.74463 20402 ft 359 kts 279°
2026-04-23 01:07 -32.58895 144.71686 20399 ft 359 kts 279°
2026-04-23 01:07 -32.58423 144.68908 20398 ft 359 kts 279°
2026-04-23 01:08 -32.57945 144.66100 20398 ft 359 kts 279°
2026-04-23 01:08 -32.57471 144.63329 20397 ft 359 kts 279°
2026-04-23 01:08 -32.56994 144.60537 20397 ft 359 kts 279°
2026-04-23 01:08 -32.56513 144.57726 20397 ft 359 kts 279°
2026-04-23 01:09 -32.56037 144.54944 20397 ft 359 kts 279°
2026-04-23 01:09 -32.55558 144.52153 20397 ft 359 kts 279°
2026-04-23 01:09 -32.55074 144.49355 20397 ft 359 kts 279°
2026-04-23 01:09 -32.54594 144.46577 20396 ft 359 kts 279°
2026-04-23 01:10 -32.54115 144.43783 20388 ft 359 kts 279°
2026-04-23 01:10 -32.53632 144.40971 20385 ft 360 kts 279°
2026-04-23 01:10 -32.53163 144.38242 20382 ft 360 kts 279°
2026-04-23 01:10 -32.52689 144.35490 20381 ft 360 kts 279°
2026-04-23 01:11 -32.52209 144.32708 20380 ft 360 kts 279°
2026-04-23 01:11 -32.51725 144.29925 20380 ft 360 kts 278°
2026-04-23 01:11 -32.51405 144.28087 20380 ft 360 kts 278°
2026-04-23 01:11 -32.50923 144.25318 20379 ft 360 kts 278°
2026-04-23 01:12 -32.50440 144.22542 20379 ft 360 kts 278°
2026-04-23 01:12 -32.49795 144.18861 20379 ft 360 kts 279°
2026-04-23 01:12 -32.49312 144.16085 20378 ft 360 kts 279°
2026-04-23 01:12 -32.48992 144.14238 20378 ft 360 kts 279°
2026-04-23 01:13 -32.48506 144.11443 20378 ft 360 kts 279°
2026-04-23 01:13 -32.48021 144.08669 20378 ft 360 kts 279°
2026-04-23 01:13 -32.47533 144.05885 20378 ft 360 kts 279°
2026-04-23 01:13 -32.47047 144.03116 20377 ft 360 kts 279°
2026-04-23 01:14 -32.46555 144.00321 20376 ft 360 kts 279°
2026-04-23 01:14 -32.46059 143.97515 20376 ft 360 kts 279°
2026-04-23 01:14 -32.45564 143.94731 20376 ft 360 kts 279°
2026-04-23 01:14 -32.45068 143.91935 20375 ft 360 kts 279°
2026-04-23 01:15 -32.44576 143.89161 20373 ft 360 kts 279°
2026-04-23 01:15 -32.44080 143.86367 20370 ft 361 kts 278°
2026-04-23 01:15 -32.43586 143.83572 20370 ft 361 kts 278°
2026-04-23 01:15 -32.43096 143.80772 20369 ft 361 kts 278°
2026-04-23 01:16 -32.42609 143.77978 20369 ft 361 kts 278°
2026-04-23 01:16 -32.42121 143.75179 20368 ft 361 kts 278°
2026-04-23 01:16 -32.41636 143.72403 20368 ft 361 kts 278°
2026-04-23 01:16 -32.41137 143.69560 20368 ft 361 kts 278°
2026-04-23 01:17 -32.40651 143.66794 20367 ft 361 kts 279°
2026-04-23 01:17 -32.40156 143.63985 20367 ft 361 kts 279°
2026-04-23 01:17 -32.39663 143.61190 20367 ft 361 kts 279°
2026-04-23 01:17 -32.39169 143.58397 20366 ft 361 kts 279°
2026-04-23 01:18 -32.38677 143.55624 20367 ft 361 kts 279°
2026-04-23 01:18 -32.38187 143.52864 20366 ft 361 kts 279°
2026-04-23 01:18 -32.37693 143.50075 20365 ft 361 kts 279°
2026-04-23 01:18 -32.37199 143.47292 20363 ft 361 kts 279°
2026-04-23 01:19 -32.36705 143.44516 20364 ft 361 kts 279°
2026-04-23 01:19 -32.36240 143.41688 20365 ft 360 kts 276°
2026-04-23 01:19 -32.35949 143.38860 20364 ft 359 kts 272°
2026-04-23 01:19 -32.35719 143.36024 20363 ft 359 kts 272°
2026-04-23 01:20 -32.35501 143.33220 20363 ft 359 kts 272°
2026-04-23 01:20 -32.35282 143.30413 20363 ft 359 kts 272°
2026-04-23 01:20 -32.35064 143.27578 20363 ft 359 kts 271°
2026-04-23 01:20 -32.34852 143.24854 20362 ft 359 kts 272°
2026-04-23 01:21 -32.34637 143.22052 20362 ft 359 kts 272°
2026-04-23 01:21 -32.34420 143.19249 20362 ft 359 kts 271°
2026-04-23 01:21 -32.34200 143.16446 20362 ft 359 kts 272°
2026-04-23 01:21 -32.33980 143.13603 20361 ft 359 kts 272°
2026-04-23 01:22 -32.33762 143.10785 20361 ft 359 kts 271°
2026-04-23 01:22 -32.33540 143.07970 20360 ft 359 kts 272°
2026-04-23 01:22 -32.33315 143.05139 20358 ft 359 kts 271°
2026-04-23 01:22 -32.33094 143.02342 20355 ft 359 kts 271°
2026-04-23 01:23 -32.32872 142.99534 20354 ft 359 kts 271°
2026-04-23 01:23 -32.32649 142.96714 20353 ft 359 kts 271°
2026-04-23 01:23 -32.32425 142.93856 20351 ft 359 kts 271°
2026-04-23 01:23 -32.32201 142.91030 20352 ft 359 kts 271°
2026-04-23 01:24 -32.31977 142.88210 20351 ft 359 kts 271°
2026-04-23 01:24 -32.31749 142.85386 20350 ft 359 kts 271°
2026-04-23 01:24 -32.31527 142.82608 20348 ft 359 kts 271°
2026-04-23 01:24 -32.31299 142.79764 20347 ft 358 kts 271°
2026-04-23 01:25 -32.31071 142.76933 20346 ft 358 kts 271°
2026-04-23 01:25 -32.30841 142.74074 20079 ft 362 kts 272°
2026-04-23 01:25 -32.30606 142.71180 19714 ft 365 kts 272°
2026-04-23 01:25 -32.30375 142.68296 19354 ft 367 kts 272°
2026-04-23 01:26 -32.30142 142.65373 18990 ft 369 kts 272°
2026-04-23 01:26 -32.29909 142.62458 18629 ft 371 kts 272°
2026-04-23 01:26 -32.29673 142.59546 18269 ft 372 kts 272°
2026-04-23 01:26 -32.29435 142.56601 17906 ft 372 kts 272°
2026-04-23 01:27 -32.29197 142.53656 17543 ft 373 kts 272°
2026-04-23 01:27 -32.28959 142.50704 17173 ft 371 kts 272°
2026-04-23 01:27 -32.28721 142.47791 16811 ft 367 kts 272°
2026-04-23 01:27 -32.28488 142.44878 16445 ft 363 kts 272°
2026-04-23 01:28 -32.28256 142.42004 16080 ft 360 kts 272°
2026-04-23 01:28 -32.28026 142.39164 15710 ft 355 kts 273°
2026-04-23 01:28 -32.27798 142.36359 15347 ft 350 kts 273°
2026-04-23 01:28 -32.27576 142.33615 14986 ft 347 kts 273°
2026-04-23 01:29 -32.27352 142.30862 14619 ft 343 kts 273°
2026-04-23 01:29 -32.27130 142.28126 14252 ft 341 kts 274°
2026-04-23 01:29 -32.26911 142.25432 13886 ft 338 kts 274°
2026-04-23 01:29 -32.26700 142.22846 13535 ft 336 kts 274°
2026-04-23 01:30 -32.26481 142.20177 13169 ft 334 kts 274°
2026-04-23 01:30 -32.26265 142.17538 12806 ft 333 kts 274°
2026-04-23 01:30 -32.26051 142.14929 12443 ft 331 kts 274°
2026-04-23 01:30 -32.25835 142.12305 12079 ft 329 kts 274°
2026-04-23 01:31 -32.25617 142.09685 11714 ft 328 kts 275°
2026-04-23 01:31 -32.25397 142.07085 11349 ft 327 kts 275°
2026-04-23 01:31 -32.25172 142.04495 10983 ft 326 kts 275°
2026-04-23 01:31 -32.24945 142.01914 10614 ft 322 kts 275°
2026-04-23 01:32 -32.24719 141.99371 10246 ft 316 kts 275°
2026-04-23 01:32 -32.24495 141.96865 9880 ft 311 kts 275°
2026-04-23 01:32 -32.24276 141.94420 9515 ft 306 kts 275°
2026-04-23 01:32 -32.24060 141.92019 9147 ft 301 kts 275°
2026-04-23 01:33 -32.23847 141.89648 8784 ft 297 kts 275°
2026-04-23 01:33 -32.23637 141.87316 8418 ft 293 kts 275°
2026-04-23 01:33 -32.23436 141.85045 8058 ft 290 kts 275°
2026-04-23 01:33 -32.23236 141.82781 7688 ft 286 kts 275°
2026-04-23 01:34 -32.23040 141.80547 7330 ft 278 kts 275°
2026-04-23 01:34 -32.22847 141.78382 6969 ft 271 kts 275°
2026-04-23 01:34 -32.22661 141.76287 6606 ft 266 kts 275°
2026-04-23 01:34 -32.22477 141.74224 6245 ft 260 kts 275°
2026-04-23 01:35 -32.22296 141.72187 5880 ft 256 kts 275°
2026-04-23 01:35 -32.22117 141.70177 5515 ft 253 kts 275°
2026-04-23 01:35 -32.21946 141.68210 5150 ft 249 kts 275°
2026-04-23 01:35 -32.21783 141.66316 4798 ft 246 kts 275°
2026-04-23 01:36 -32.21614 141.64381 4433 ft 243 kts 276°
2026-04-23 01:36 -32.21445 141.62419 4085 ft 255 kts 276°
2026-04-23 01:36 -32.21264 141.60359 3722 ft 266 kts 275°
2026-04-23 01:36 -32.21077 141.58247 3350 ft 266 kts 276°
2026-04-23 01:37 -32.20895 141.56190 3121 ft 260 kts 276°
2026-04-23 01:37 -32.20715 141.54191 3046 ft 248 kts 276°
2026-04-23 01:37 -32.20540 141.52270 3001 ft 238 kts 276°
2026-04-23 01:37 -32.20371 141.50425 2980 ft 226 kts 277°
2026-04-23 01:38 -32.20205 141.48641 2987 ft 223 kts 276°
2026-04-23 01:38 -32.20039 141.46879 2985 ft 222 kts 276°
2026-04-23 01:38 -32.19874 141.45120 2976 ft 219 kts 276°
2026-04-23 01:38 -32.19710 141.43383 2976 ft 217 kts 277°
2026-04-23 01:39 -32.19550 141.41653 3019 ft 215 kts 276°
2026-04-23 01:39 -32.19389 141.39950 3013 ft 217 kts 276°
2026-04-23 01:39 -32.19226 141.38247 2991 ft 218 kts 277°
2026-04-23 01:39 -32.19063 141.36521 2990 ft 218 kts 276°
2026-04-23 01:40 -32.18853 141.34794 2972 ft 218 kts 285°
2026-04-23 01:40 -32.18157 141.33309 2976 ft 214 kts 313°
2026-04-23 01:40 -32.17054 141.32252 2986 ft 211 kts 330°
2026-04-23 01:40 -32.15809 141.31500 2984 ft 210 kts 339°
2026-04-23 01:41 -32.14502 141.30895 2985 ft 210 kts 342°
2026-04-23 01:41 -32.13164 141.30339 2985 ft 210 kts 344°
2026-04-23 01:41 -32.11813 141.29836 2977 ft 210 kts 346°
2026-04-23 01:41 -32.10438 141.29802 2962 ft 202 kts 16°
2026-04-23 01:42 -32.09301 141.30600 2977 ft 195 kts 46°
2026-04-23 01:42 -32.08547 141.31851 2999 ft 194 kts 60°
2026-04-23 01:42 -32.07912 141.33206 2990 ft 196 kts 63°
2026-04-23 01:42 -32.07262 141.34575 2985 ft 197 kts 61°
2026-04-23 01:43 -32.06585 141.35940 2988 ft 197 kts 60°
2026-04-23 01:43 -32.05912 141.37310 2946 ft 197 kts 60°
2026-04-23 01:43 -32.05230 141.38618 2910 ft 189 kts 57°
2026-04-23 01:43 -32.04525 141.39835 2890 ft 181 kts 56°
2026-04-23 01:44 -32.03833 141.41009 2550 ft 174 kts 57°
2026-04-23 01:44 -32.03162 141.42144 2147 ft 168 kts 56°
2026-04-23 01:44 -32.02516 141.43265 1712 ft 166 kts 59°
2026-04-23 01:44 -32.01899 141.44357 1323 ft 155 kts 55°
2026-04-23 01:45 -32.01349 141.45306 1110 ft 133 kts 59°
2026-04-23 01:45 -32.00832 141.46202 978 ft 132 kts 57°
2026-04-23 01:45 -32.00442 141.46890 966 ft 68 kts 56°
2026-04-23 01:45 -32.00364 141.47030 966 ft 2 kts 56°
2026-04-23 01:46 -32.00343 141.47066 966 ft 11 kts 56°
2026-04-23 01:46 -32.00300 141.47139 966 ft 11 kts 54°
2026-04-23 01:46 -32.00244 141.47196 966 ft 11 kts 357°
2026-04-23 01:46 -32.00162 141.47141 966 ft 18 kts 324°
2026-04-23 01:47 -32.00046 141.47053 966 ft 16 kts 326°
2026-04-23 01:47 -31.99999 141.47027 966 ft 4 kts 351°
2026-04-23 01:47 -31.99983 141.47031 966 ft 0 kts 37°